星链-35852(STARLINK-35852)

导读 | 豆包AI

STARLINK-35852是由美国于2025年12月4日发射的星链系列低轨互联网通信卫星,隶属于SpaceX公司的星链卫星互联网项目,该卫星承担着为全球偏远、欠发达地区以及高速移动场景提供高速低延迟宽带网络服务的任务,进一步扩展了星链系统的全球覆盖范围与服务容量。

Basic Information
目录编号:
66889
目录名称:
STARLINK-35852
国际标识:
2025-283M
轨道中心:
EARTH
卫星名称:
星链-35852
卫星全名:
星链-35852(STARLINK-35852)
卫星状态:
在轨 (已飞行146 天)
发射日期:
2025-12-04 UTC
国别 :
美国 (US)
星等 :
--
Orbit Information
数据来源 国际轨道数据 AOE轨道数据
星历时间 2026-04-29T02:50:15+0800
9小时前
查看轨道信息
2026-04-24T16:00:00+0800
4天前
查看轨道信息
半长轴 6853.365km 6853.319km
偏心率 0.0001187 0.0001396
轨道倾角 53.156° 53.159°
近地点辐角 51.500° 60.046°
升交点赤经 151.498° 172.180°
平近点角 308.611° 244.130°
近地点 474.414km 474.225km
远地点 476.042km 476.139km
周期 94.106分钟 94.105分钟
每日圈数 15.301958 15.302112
Detailed Information
固有亮度:
5
最大亮度:
2.5
卫星平台:
Starlink V1.0
覆盖范围:
全球
运营商:
太空探索技术公司
运营商所在国:
美国
制造商(研发单位):
太空探索技术公司
制造商所在国:
美国
使用方式:
暂无
Satellite Introduction
Starlink 计划是 SpaceX 推出的全球卫星互联网项目,通过发射低轨道卫星,为全球尤其是偏远地区提供高速、低延迟的互联网服务。自 2019 年起,Starlink 已部署数千颗卫星,旨在缩小全球数字鸿沟,推动互联网普及。该项目还为军事、航空等行业提供通信支持,带来广泛经济效益。
2D Orbit Map
3D Orbit Map
Orbit Altitude Analysis Chart
Orbit Inclination Analysis Chart
Orbit Comprehensive Analysis Chart
View Comprehensive Chart